TimeEDT,TemperatureF,Dew PointF,Humidity,Sea Level PressureIn,VisibilityMPH,Wind Direction,Wind SpeedMPH,Gust SpeedMPH,PrecipitationIn,Events,Conditions,WindDirDegrees,DateUTC
12:15 AM,57.2,53.6,88,29.44,10.0,South,19.6,27.6,0.01,,Overcast,170,2013-11-01 04:15:00
12:35 AM,57.2,53.6,88,29.42,10.0,South,23.0,32.2,0.01,,Overcast,170,2013-11-01 04:35:00
12:55 AM,59.0,53.6,82,29.41,10.0,South,21.9,34.5,0.01,,Overcast,170,2013-11-01 04:55:00
1:15 AM,57.2,53.6,88,29.39,9.0,South,20.7,27.6,0.02,,Overcast,170,2013-11-01 05:15:00
1:35 AM,59.0,53.6,82,29.38,10.0,South,19.6,26.5,0.02,,Overcast,170,2013-11-01 05:35:00
1:55 AM,59.0,53.6,82,29.37,10.0,South,17.3,28.8,0.02,,Overcast,170,2013-11-01 05:55:00
2:15 AM,60.8,53.6,77,29.35,10.0,South,20.7,26.5,N/A,,Overcast,170,2013-11-01 06:15:00
2:35 AM,60.8,53.6,77,29.34,10.0,South,20.7,27.6,N/A,,Overcast,170,2013-11-01 06:35:00
2:55 AM,59.0,53.6,82,29.34,10.0,South,21.9,31.1,N/A,,Overcast,170,2013-11-01 06:55:00
3:15 AM,59.0,53.6,82,29.34,9.0,South,16.1,24.2,0.01,,Overcast,190,2013-11-01 07:15:00
3:35 AM,57.2,55.4,94,29.39,9.0,SW,11.5,-,0.13,,Mostly Cloudy,220,2013-11-01 07:35:00
3:55 AM,59.0,55.4,88,29.40,10.0,WSW,15.0,24.2,0.15,,Overcast,240,2013-11-01 07:55:00
4:15 AM,57.2,53.6,88,29.39,10.0,SW,13.8,21.9,0.01,,Overcast,220,2013-11-01 08:15:00
4:35 AM,57.2,51.8,82,29.37,10.0,SSW,16.1,-,0.02,,Overcast,210,2013-11-01 08:35:00
4:55 AM,55.4,51.8,88,29.39,10.0,SW,15.0,23.0,0.03,,Overcast,220,2013-11-01 08:55:00
5:15 AM,55.4,51.8,88,29.42,10.0,SW,17.3,25.3,N/A,,Overcast,220,2013-11-01 09:15:00
5:35 AM,55.4,50.0,82,29.41,10.0,SW,19.6,27.6,N/A,,Overcast,230,2013-11-01 09:35:00
5:55 AM,55.4,48.2,77,29.43,10.0,SW,18.4,23.0,N/A,,Overcast,220,2013-11-01 09:55:00
6:15 AM,55.4,48.2,77,29.43,10.0,SW,17.3,25.3,N/A,,Overcast,220,2013-11-01 10:15:00
6:35 AM,55.4,48.2,77,29.45,10.0,SW,17.3,25.3,N/A,,Overcast,220,2013-11-01 10:35:00
6:55 AM,55.4,48.2,77,29.46,10.0,SW,15.0,28.8,N/A,,Overcast,230,2013-11-01 10:55:00
7:15 AM,55.4,48.2,77,29.47,10.0,SW,16.1,24.2,N/A,,Overcast,220,2013-11-01 11:15:00
7:35 AM,55.4,48.2,77,29.49,10.0,SW,16.1,21.9,N/A,,Mostly Cloudy,220,2013-11-01 11:35:00
7:55 AM,55.4,48.2,77,29.51,10.0,WSW,19.6,29.9,N/A,,Overcast,240,2013-11-01 11:55:00
8:15 AM,55.4,46.4,72,29.53,10.0,SW,18.4,27.6,N/A,,Mostly Cloudy,230,2013-11-01 12:15:00
8:35 AM,53.6,42.8,67,29.55,10.0,West,18.4,41.4,N/A,,Partly Cloudy,260,2013-11-01 12:35:00
8:55 AM,53.6,41.0,62,29.56,10.0,WSW,15.0,24.2,N/A,,Partly Cloudy,240,2013-11-01 12:55:00
9:15 AM,53.6,42.8,67,29.58,10.0,SW,16.1,26.5,N/A,,Scattered Clouds,230,2013-11-01 13:15:00
9:35 AM,53.6,41.0,62,29.60,10.0,SW,23.0,31.1,N/A,,Overcast,230,2013-11-01 13:35:00
9:55 AM,53.6,41.0,62,29.60,10.0,WSW,18.4,27.6,N/A,,Mostly Cloudy,250,2013-11-01 13:55:00
10:15 AM,53.6,41.0,62,29.60,10.0,SW,17.3,24.2,N/A,,Scattered Clouds,230,2013-11-01 14:15:00
10:35 AM,53.6,39.2,58,29.60,10.0,WSW,16.1,35.7,N/A,,Partly Cloudy,240,2013-11-01 14:35:00
10:55 AM,53.6,37.4,54,29.61,10.0,WSW,19.6,32.2,N/A,,Mostly Cloudy,240,2013-11-01 14:55:00
11:15 AM,53.6,39.2,58,29.62,10.0,WSW,18.4,25.3,N/A,,Overcast,250,2013-11-01 15:15:00
11:35 AM,53.6,39.2,58,29.63,10.0,WSW,12.7,21.9,N/A,,Overcast,250,2013-11-01 15:35:00
11:55 AM,51.8,39.2,62,29.65,10.0,West,18.4,31.1,N/A,,Overcast,260,2013-11-01 15:55:00
12:15 PM,51.8,37.4,58,29.66,10.0,WSW,17.3,27.6,N/A,,Overcast,250,2013-11-01 16:15:00
12:35 PM,51.8,37.4,58,29.66,10.0,West,15.0,27.6,N/A,,Overcast,270,2013-11-01 16:35:00
12:55 PM,51.8,37.4,58,29.66,10.0,WSW,13.8,26.5,N/A,,Overcast,250,2013-11-01 16:55:00
1:15 PM,51.8,37.4,58,29.65,10.0,WSW,16.1,25.3,N/A,,Overcast,240,2013-11-01 17:15:00
1:35 PM,51.8,37.4,58,29.65,10.0,WSW,13.8,26.5,N/A,,Overcast,240,2013-11-01 17:35:00
1:55 PM,51.8,39.2,62,29.65,10.0,WSW,15.0,20.7,N/A,,Overcast,240,2013-11-01 17:55:00
2:15 PM,51.8,37.4,58,29.65,10.0,WSW,12.7,23.0,N/A,,Overcast,240,2013-11-01 18:15:00
2:35 PM,53.6,37.4,54,29.64,10.0,WSW,10.4,20.7,N/A,,Overcast,250,2013-11-01 18:35:00
2:55 PM,53.6,39.2,58,29.64,10.0,West,11.5,16.1,N/A,,Overcast,260,2013-11-01 18:55:00
3:15 PM,53.6,37.4,54,29.64,10.0,SW,18.4,25.3,N/A,,Overcast,220,2013-11-01 19:15:00
3:35 PM,53.6,37.4,54,29.65,10.0,WSW,12.7,23.0,N/A,,Overcast,240,2013-11-01 19:35:00
3:55 PM,53.6,37.4,54,29.65,10.0,WSW,11.5,25.3,N/A,,Overcast,250,2013-11-01 19:55:00
4:15 PM,53.6,37.4,54,29.66,10.0,West,13.8,17.3,N/A,,Overcast,260,2013-11-01 20:15:00
4:35 PM,53.6,37.4,54,29.65,10.0,WSW,11.5,19.6,N/A,,Overcast,250,2013-11-01 20:35:00
4:55 PM,53.6,37.4,54,29.65,10.0,WSW,13.8,19.6,N/A,,Overcast,240,2013-11-01 20:55:00
5:15 PM,53.6,37.4,54,29.66,10.0,SW,9.2,-,N/A,,Overcast,230,2013-11-01 21:15:00
5:35 PM,53.6,37.4,54,29.67,10.0,WSW,6.9,-,N/A,,Overcast,240,2013-11-01 21:35:00
5:55 PM,53.6,37.4,54,29.67,10.0,WSW,9.2,-,N/A,,Overcast,250,2013-11-01 21:55:00
6:15 PM,53.6,37.4,54,29.67,10.0,WSW,6.9,-,N/A,,Overcast,250,2013-11-01 22:15:00
6:35 PM,53.6,37.4,54,29.68,10.0,WSW,9.2,-,N/A,,Overcast,240,2013-11-01 22:35:00
6:55 PM,53.6,37.4,54,29.68,10.0,WSW,6.9,-,N/A,,Overcast,240,2013-11-01 22:55:00
7:15 PM,51.8,37.4,58,29.69,10.0,WSW,5.8,-,N/A,,Overcast,240,2013-11-01 23:15:00
7:35 PM,51.8,37.4,58,29.70,10.0,WSW,6.9,-,N/A,,Overcast,250,2013-11-01 23:35:00
7:55 PM,51.8,37.4,58,29.70,10.0,WSW,6.9,-,N/A,,Overcast,240,2013-11-01 23:55:00
8:15 PM,51.8,37.4,58,29.70,10.0,WSW,5.8,-,N/A,,Overcast,240,2013-11-02 00:15:00
8:35 PM,51.8,37.4,58,29.70,10.0,WSW,3.5,-,N/A,,Overcast,240,2013-11-02 00:35:00
8:55 PM,50.0,37.4,62,29.70,10.0,SW,3.5,-,N/A,,Overcast,220,2013-11-02 00:55:00
9:15 PM,50.0,37.4,62,29.70,10.0,WSW,3.5,-,N/A,,Overcast,250,2013-11-02 01:15:00
9:35 PM,50.0,37.4,62,29.71,10.0,Calm,Calm,-,N/A,,Overcast,0,2013-11-02 01:35:00
9:55 PM,50.0,37.4,62,29.71,10.0,SW,3.5,-,N/A,,Overcast,230,2013-11-02 01:55:00
10:15 PM,50.0,37.4,62,29.71,10.0,Calm,Calm,-,N/A,,Overcast,0,2013-11-02 02:15:00
10:35 PM,48.2,39.2,71,29.71,10.0,Calm,Calm,-,N/A,,Overcast,0,2013-11-02 02:35:00
10:55 PM,48.2,39.2,71,29.71,9.0,WSW,4.6,-,N/A,,Overcast,250,2013-11-02 02:55:00
11:15 PM,48.2,41.0,76,29.70,9.0,WSW,4.6,-,N/A,,Overcast,250,2013-11-02 03:15:00
11:35 PM,48.2,41.0,76,29.70,10.0,SW,3.5,-,N/A,,Overcast,230,2013-11-02 03:35:00
11:55 PM,48.2,42.8,82,29.70,10.0,WSW,5.8,-,N/A,,Overcast,240,2013-11-02 03:55:00